星链-32017 (STARLINK-32017 )

导读 | 星芒AI

STARLINK-32017 是 SpaceX Starlink 项目中的一颗低轨通信卫星,属于第三代 Starlink 卫星(也称为 v1.5 或 Block V)。该卫星于 2023 年发射,旨在为全球用户提供高速、低延迟的互联网服务。它运行在约 550 公里的轨道高度,采用先进的推进系统和激光通信技术,以提升网络效率和稳定性。Starlink 卫星群致力于改善偏远地区的网络接入,支持多种应用场景,包括民用、科研和军事通信。

基本信息
目录编号:
60032
目录名称:
STARLINK-32017
国际标识:
2024-111S
轨道中心:
EARTH
卫星名称:
星链-32017
卫星全名:
星链-32017 (STARLINK-32017 )
卫星状态:
在轨 (已飞行513 天)
发射日期:
2024-06-08 UTC
国别 :
美国 (US)
星等 :
--
轨道信息
数据来源 国际轨道数据
星历时间: 2025-11-02T15:56:49+0800
20小时前
查看轨道信息
半长轴: 6853.384km
偏心率: 0.0001389
轨道倾角: 53.161°
近地点辐角 93.692°
升交点赤经 307.263°
平近点角 266.423°
近地点: 474.297km
远地点: 476.201km
周期: 94.106分钟
每日圈数: 15.301896
详细信息
固有亮度:
5
最大亮度:
1.5
卫星平台:
Starlink v2.0 mini
覆盖范围:
全球
运营商:
太空探索技术公司
运营商所在国:
美国
制造商(研发单位):
太空探索技术公司
制造商所在国:
美国
使用方式:
暂无
卫星简介
星链(Starlink)计划是由太空探索技术公司(SpaceX)提出的一个巨型低轨卫星互联网星座项目,计划在2019年至2024年间在太空搭建由约1.2万颗卫星组成的“星链”网络,其中1584颗将部署在地球上空550千米处的近地轨道,并从2020年开始工作。该卫星仍在工作。
2D轨道图
3D轨道图
轨道高度分析图
轨道倾角分析图
轨道综合分析图
查看轨道综合分析图